Location: Chiroubles
(46.1812°N, 4.6660°E)
Time: 03:38:57
(UTC+00:00)

Cosmos 1140 Rocket - Pass Details

Date: 15 August 2020
Orbit: 745 x 767 km, 74.1° (Epoch: 27 September)

Event Time Altitude Azimuth Distance (km) Brightness Sun altitude
Rises 19:21:22 0° 197° (SSW) 3,220 6.6 -5.8°
Reaches altitude 10° 19:23:43 10° 196° (SSW) 2,299 5.9 -6.2°
Maximum altitude 19:28:57 82° 110° (ESE) 780 3.5 -7.0°
Drops below altitude 10° 19:34:12 10° 23° (NNE) 2,313 6.1 -7.8°
Sets 19:36:35 0° 23° (NNE) 3,241 6.8 -8.2°
